This is the latest recevied weather packets stored in our database for station/object KD9JB-1. If no packets are shown the sender has not sent any weather packets the latest 1 day(s).
| Time | Temp. | Humidity | Pressure | Rain* | Wind** | Luminosity | Snow |
|---|---|---|---|---|---|---|---|
| 1778051194 | 7.78° C | 90% | 1010.2 hPa | 0.25 mm | 1.34 m/s, 18° | - | - |
| 1778050894 | 7.78° C | 90% | 1009.9 hPa | 0.25 mm | 1.79 m/s, 28° | - | - |
| 1778050594 | 8.33° C | 91% | 1010 hPa | 0.51 mm | 2.24 m/s, 15° | - | - |
| 1778050294 | 8.33° C | 91% | 1010.2 hPa | 0.76 mm | 2.24 m/s, 347° | - | - |
| 1778049994 | 8.33° C | 92% | 1010.2 hPa | 0.76 mm | 2.24 m/s, 11° | - | - |
| 1778049694 | 8.33° C | 92% | 1009.9 hPa | 0.76 mm | 2.68 m/s, 331° | - | - |
| 1778049394 | 8.89° C | 92% | 1010.2 hPa | 1.02 mm | 2.68 m/s, 6° | - | - |
| 1778049094 | 8.89° C | 92% | 1010 hPa | 1.27 mm | 2.68 m/s, 347° | - | - |
| 1778048794 | 8.89° C | 93% | 1010.2 hPa | 1.52 mm | 2.24 m/s, 350° | - | - |
| 1778048494 | 8.89° C | 93% | 1010.2 hPa | 1.27 mm | 1.79 m/s, 13° | - | - |
| 1778048194 | 8.89° C | 93% | 1010.3 hPa | 1.52 mm | 1.34 m/s, 49° | - | - |
| 1778047894 | 8.89° C | 93% | 1010.2 hPa | 1.78 mm | 1.79 m/s, 325° | - | - |
| 1778047594 | 8.89° C | 93% | 1010.1 hPa | 2.54 mm | 2.24 m/s, 333° | - | - |
| 1778047294 | 8.89° C | 93% | 1009.9 hPa | 3.05 mm | 2.24 m/s, 347° | - | - |
| 1778046994 | 8.89° C | 93% | 1009.7 hPa | 2.79 mm | 2.24 m/s, 33° | - | - |
| 1778046694 | 8.89° C | 93% | 1009.7 hPa | 3.3 mm | 2.24 m/s, 42° | - | - |
| 1778046394 | 8.89° C | 93% | 1009.9 hPa | 3.56 mm | 1.79 m/s, 333° | - | - |
| 1778046094 | 9.44° C | 93% | 1009.7 hPa | 3.56 mm | 2.24 m/s, 1° | - | - |
| 1778045794 | 9.44° C | 93% | 1009.6 hPa | 3.81 mm | 1.79 m/s, 58° | - | - |
| 1778045494 | 9.44° C | 93% | 1009.7 hPa | 4.06 mm | 1.79 m/s, 35° | - | - |
| 1778045194 | 9.44° C | 93% | 1009.5 hPa | 4.06 mm | 1.79 m/s, 1° | - | - |
| 1778044894 | 9.44° C | 93% | 1009.6 hPa | 4.32 mm | 2.24 m/s, 37° | - | - |
| 1778044594 | 9.44° C | 93% | 1009.9 hPa | 4.06 mm | 1.79 m/s, 13° | - | - |
| 1778044294 | 9.44° C | 93% | 1009.5 hPa | 4.06 mm | 1.79 m/s, 350° | - | - |
| 1778043994 | 9.44° C | 93% | 1009.4 hPa | 3.3 mm | 1.79 m/s, 317° | - | - |
* Rain latest hour (hover to see other rain measurements)
** Current wind speed in m/s (hover to see current wind gust speed)